| time (UTC) | temp F | wind direction | speed knots | gust knots | rain 1hr in | rain 24hr in | rain mn in | humidity % | barometer mb |
| 20260507221604 | 84 | 137 | 0.9 | 4.3 | 0.00 | 0.00 | 0.00 | 69 | 1014.9 |
| 20260507221101 | 85 | 160 | 2.6 | 6.1 | 0.00 | 0.00 | 0.00 | 68 | 1014.8 |
| 20260507220558 | 86 | 215 | 3.5 | 6.1 | 0.00 | 0.00 | 0.00 | 68 | 1014.7 |
| 20260507220056 | 86 | 198 | 0.9 | 4.3 | 0.00 | 0.00 | 0.00 | 69 | 1014.7 |
| 20260507215551 | 85 | 181 | 2.6 | 3.5 | 0.00 | 0.00 | 0.00 | 69 | 1014.8 |
| 20260507215050 | 85 | 161 | 2.6 | 4.3 | 0.00 | 0.00 | 0.00 | 70 | 1014.9 |
| 20260507214546 | 84 | 155 | 2.6 | 3.5 | 0.00 | 0.00 | 0.00 | 70 | 1014.9 |
| 20260507214042 | 85 | 150 | 2.6 | 6.1 | 0.00 | 0.00 | 0.00 | 68 | 1014.8 |
| 20260507213539 | 85 | 199 | 2.6 | 6.1 | 0.00 | 0.00 | 0.00 | 67 | 1014.9 |
| 20260507213036 | 86 | 183 | 5.2 | 7.0 | 0.00 | 0.00 | 0.00 | 66 | 1014.9 |
| 20260507212532 | 87 | 156 | 2.6 | 6.1 | 0.00 | 0.00 | 0.00 | 63 | 1014.9 |
| 20260507212029 | 86 | 199 | 2.6 | 6.1 | 0.00 | 0.00 | 0.00 | 62 | 1014.8 |
| 20260507211526 | 86 | 176 | 2.6 | 7.0 | 0.00 | 0.00 | 0.00 | 63 | 1014.8 |
| 20260507211022 | 87 | 134 | 3.5 | 5.2 | 0.00 | 0.00 | 0.00 | 60 | 1014.8 |
| 20260507210519 | 88 | 232 | 1.7 | 5.2 | 0.00 | 0.00 | 0.00 | 59 | 1014.9 |
| 20260507210016 | 87 | 159 | 4.3 | 6.1 | 0.00 | 0.00 | 0.00 | 58 | 1014.9 |
| 20260507205513 | 87 | 200 | 3.5 | 7.0 | 0.00 | 0.00 | 0.00 | 62 | 1014.9 |
| 20260507205009 | 87 | 153 | 1.7 | 7.0 | 0.00 | 0.00 | 0.00 | 61 | 1014.8 |
| 20260507204505 | 88 | 164 | 5.2 | 7.8 | 0.00 | 0.00 | 0.00 | 60 | 1014.8 |
| 20260507204003 | 88 | 134 | 7.0 | 7.8 | 0.00 | 0.00 | 0.00 | 60 | 1014.9 |
| 20260507203501 | 88 | 157 | 3.5 | 9.6 | 0.00 | 0.00 | 0.00 | 61 | 1014.8 |
| 20260507202957 | 88 | 216 | 1.7 | 7.8 | 0.00 | 0.00 | 0.00 | 61 | 1015.0 |
| 20260507202453 | 88 | 235 | 2.6 | 6.1 | 0.00 | 0.00 | 0.00 | 60 | 1015.0 |
| 20260507201949 | 88 | 154 | 5.2 | 7.8 | 0.00 | 0.00 | 0.00 | 58 | 1015.0 |
| 20260507201444 | 88 | 174 | 7.0 | 7.0 | 0.00 | 0.00 | 0.00 | 61 | 1015.0 |
| 20260507200941 | 88 | 203 | 0.9 | 6.1 | 0.00 | 0.00 | 0.00 | 62 | 1015.1 |
| 20260507200436 | 90 | 172 | 2.6 | 3.5 | 0.00 | 0.00 | 0.00 | 57 | 1015.3 |
| 20260507195932 | 90 | 162 | 2.6 | 5.2 | 0.00 | 0.00 | 0.00 | 57 | 1015.2 |
| 20260507195430 | 89 | 134 | 3.5 | 5.2 | 0.00 | 0.00 | 0.00 | 57 | 1015.1 |
| 20260507194928 | 89 | 170 | 1.7 | 7.8 | 0.00 | 0.00 | 0.00 | 56 | 1015.3 |
| 20260507194424 | 89 | 184 | 1.7 | 7.8 | 0.00 | 0.00 | 0.00 | 54 | 1015.3 |
| 20260507193920 | 89 | 177 | 7.0 | 8.7 | 0.00 | 0.00 | 0.00 | 55 | 1015.4 |
| 20260507193417 | 91 | 219 | 1.7 | 7.0 | 0.00 | 0.00 | 0.00 | 56 | 1015.3 |
| 20260507192914 | 90 | 213 | 1.7 | 7.8 | 0.00 | 0.00 | 0.00 | 57 | 1015.3 |
| 20260507192405 | 90 | 163 | 1.7 | 5.2 | 0.00 | 0.00 | 0.00 | 55 | 1015.4 |
| 20260507191902 | 91 | 194 | 3.5 | 6.1 | 0.00 | 0.00 | 0.00 | 56 | 1015.5 |
| 20260507191358 | 89 | 175 | 3.5 | 7.0 | 0.00 | 0.00 | 0.00 | 60 | 1015.6 |
| 20260507190854 | 89 | 189 | 1.7 | 7.8 | 0.00 | 0.00 | 0.00 | 58 | 1015.7 |
| 20260507190353 | 88 | 169 | 2.6 | 8.7 | 0.00 | 0.00 | 0.00 | 60 | 1015.7 |
| 20260507185851 | 89 | 180 | 3.5 | 7.8 | 0.00 | 0.00 | 0.00 | 58 | 1015.8 |
| 20260507185348 | 89 | 173 | 7.8 | 8.7 | 0.00 | 0.00 | 0.00 | 58 | 1015.8 |
| 20260507184845 | 89 | 172 | 1.7 | 7.0 | 0.00 | 0.00 | 0.00 | 58 | 1015.9 |
| 20260507184343 | 89 | 183 | 7.0 | 7.8 | 0.00 | 0.00 | 0.00 | 59 | 1016.0 |
| 20260507183839 | 89 | 112 | 0.9 | 7.8 | 0.00 | 0.00 | 0.00 | 59 | 1016.2 |
| 20260507183336 | 90 | 121 | 1.7 | 5.2 | 0.00 | 0.00 | 0.00 | 58 | 1016.2 |
| 20260507182834 | 89 | 159 | 3.5 | 7.8 | 0.00 | 0.00 | 0.00 | 57 | 1016.2 |
| 20260507182330 | 89 | 180 | 3.5 | 7.0 | 0.00 | 0.00 | 0.00 | 59 | 1016.4 |
| 20260507181826 | 89 | 185 | 1.7 | 8.7 | 0.00 | 0.00 | 0.00 | 60 | 1016.6 |
| 20260507181322 | 90 | 176 | 2.6 | 6.1 | 0.00 | 0.00 | 0.00 | 58 | 1016.6 |
| 20260507180819 | 91 | 196 | 4.3 | 9.6 | 0.00 | 0.00 | 0.00 | 56 | 1016.7 |
| 20260507180316 | 90 | 188 | 3.5 | 5.2 | 0.00 | 0.00 | 0.00 | 58 | 1016.7 |
| 20260507175811 | 89 | 215 | 1.7 | 6.1 | 0.00 | 0.00 | 0.00 | 59 | 1016.6 |
| 20260507175309 | 89 | 129 | 6.1 | 7.8 | 0.00 | 0.00 | 0.00 | 55 | 1016.8 |
| 20260507174806 | 89 | 150 | 2.6 | 7.8 | 0.00 | 0.00 | 0.00 | 56 | 1016.9 |
| 20260507174304 | 89 | 159 | 3.5 | 7.8 | 0.00 | 0.00 | 0.00 | 56 | 1016.9 |
| 20260507173801 | 90 | 128 | 6.1 | 7.8 | 0.00 | 0.00 | 0.00 | 57 | 1017.1 |
| 20260507173258 | 90 | 140 | 4.3 | 7.8 | 0.00 | 0.00 | 0.00 | 58 | 1017.2 |
| 20260507172754 | 90 | 177 | 5.2 | 7.8 | 0.00 | 0.00 | 0.00 | 57 | 1017.2 |
| 20260507172251 | 90 | 189 | 4.3 | 6.1 | 0.00 | 0.00 | 0.00 | 57 | 1017.2 |
| 20260507171747 | 89 | 216 | 1.7 | 7.0 | 0.00 | 0.00 | 0.00 | 58 | 1017.2 |
| 20260507171244 | 89 | 194 | 5.2 | 7.8 | 0.00 | 0.00 | 0.00 | 59 | 1017.3 |
| 20260507170741 | 89 | 162 | 2.6 | 7.8 | 0.00 | 0.00 | 0.00 | 61 | 1017.2 |
| 20260507170238 | 89 | 190 | 1.7 | 5.2 | 0.00 | 0.00 | 0.00 | 62 | 1017.5 |
| 20260507165733 | 90 | 176 | 3.5 | 6.1 | 0.00 | 0.00 | 0.00 | 59 | 1017.6 |
| 20260507165229 | 90 | 163 | 1.7 | 6.1 | 0.00 | 0.00 | 0.00 | 60 | 1017.6 |
| 20260507164726 | 90 | 214 | 1.7 | 5.2 | 0.00 | 0.00 | 0.00 | 61 | 1017.7 |
| 20260507164223 | 90 | 211 | 2.6 | 4.3 | 0.00 | 0.00 | 0.00 | 59 | 1017.6 |
| 20260507163720 | 89 | 191 | 3.5 | 7.0 | 0.00 | 0.00 | 0.00 | 61 | 1017.6 |
| 20260507163218 | 89 | 185 | 1.7 | 6.1 | 0.00 | 0.00 | 0.00 | 62 | 1017.8 |
| 20260507162714 | 89 | 149 | 1.7 | 7.0 | 0.00 | 0.00 | 0.00 | 62 | 1017.9 |
| 20260507162210 | 89 | 207 | 1.7 | 6.1 | 0.00 | 0.00 | 0.00 | 60 | 1018.1 |
| 20260507161706 | 89 | 170 | 3.5 | 5.2 | 0.00 | 0.00 | 0.00 | 60 | 1018.0 |
| 20260507161203 | 88 | 207 | 3.5 | 6.1 | 0.00 | 0.00 | 0.00 | 63 | 1017.8 |
| 20260507160659 | 87 | 160 | 2.6 | 5.2 | 0.00 | 0.00 | 0.00 | 63 | 1018.0 |
| 20260507160156 | 89 | 224 | 1.7 | 3.5 | 0.00 | 0.00 | 0.00 | 58 | 1017.9 |
| 20260507155651 | 89 | 183 | 6.1 | 6.1 | 0.00 | 0.00 | 0.00 | 59 | 1018.0 |
| 20260507155148 | 87 | 144 | 1.7 | 3.5 | 0.00 | 0.00 | 0.00 | 63 | 1017.9 |
| 20260507154644 | 88 | 184 | 3.5 | 5.2 | 0.00 | 0.00 | 0.00 | 61 | 1018.0 |
| 20260507154142 | 89 | 219 | 1.7 | 5.2 | 0.00 | 0.00 | 0.00 | 61 | 1017.8 |
| 20260507153638 | 89 | 304 | 0.9 | 3.5 | 0.00 | 0.00 | 0.00 | 61 | 1018.0 |
| 20260507153135 | 87 | 293 | 0.9 | 1.7 | 0.00 | 0.00 | 0.00 | 64 | 1018.0 |
| 20260507152631 | 86 | 153 | 0.9 | 2.6 | 0.00 | 0.00 | 0.00 | 63 | 1017.9 |
| 20260507152127 | 86 | 112 | 1.7 | 3.5 | 0.00 | 0.00 | 0.00 | 63 | 1018.2 |
| 20260507151624 | 88 | 76 | 3.5 | 3.5 | 0.00 | 0.00 | 0.00 | 56 | 1018.1 |
| 20260507151121 | 89 | 85 | 0.9 | 3.5 | 0.00 | 0.00 | 0.00 | 54 | 1018.3 |
| 20260507150618 | 90 | 107 | 1.7 | 1.7 | 0.00 | 0.00 | 0.00 | 53 | 1018.1 |
| 20260507150114 | 89 | 69 | 0.0 | 1.7 | 0.00 | 0.00 | 0.00 | 53 | 1018.3 |
| 20260507145609 | 89 | 147 | 1.7 | 3.5 | 0.00 | 0.00 | 0.00 | 53 | 1017.9 |
| 20260507145108 | 87 | 224 | 0.0 | 2.6 | 0.00 | 0.00 | 0.00 | 56 | 1017.9 |
| 20260507144603 | 87 | 185 | 0.9 | 4.3 | 0.00 | 0.00 | 0.00 | 56 | 1017.9 |
| 20260507144102 | 87 | 215 | 3.5 | 5.2 | 0.00 | 0.00 | 0.00 | 57 | 1017.9 |
| 20260507143558 | 88 | 83 | 2.6 | 4.3 | 0.00 | 0.00 | 0.00 | 55 | 1018.1 |
| 20260507143055 | 87 | 126 | 2.6 | 4.3 | 0.00 | 0.00 | 0.00 | 57 | 1018.1 |
| 20260507142555 | 87 | 201 | 1.7 | 3.5 | 0.00 | 0.00 | 0.00 | 58 | 1018.2 |
| 20260507142053 | 87 | 173 | 1.7 | 5.2 | 0.00 | 0.00 | 0.00 | 59 | 1018.0 |
| 20260507141549 | 87 | 131 | 2.6 | 4.3 | 0.00 | 0.00 | 0.00 | 58 | 1018.0 |
| 20260507141046 | 87 | 221 | 0.9 | 4.3 | 0.00 | 0.00 | 0.00 | 59 | 1018.1 |
| 20260507140542 | 87 | 158 | 1.7 | 3.5 | 0.00 | 0.00 | 0.00 | 59 | 1018.1 |
| 20260507140040 | 87 | 267 | 0.9 | 1.7 | 0.00 | 0.00 | 0.00 | 61 | 1018.2 |
| 20260507135536 | 86 | 183 | 1.7 | 4.3 | 0.00 | 0.00 | 0.00 | 63 | 1017.9 |
| 20260507135034 | 86 | 191 | 1.7 | 3.5 | 0.00 | 0.00 | 0.00 | 62 | 1018.0 |
| 20260507134530 | 86 | 96 | 2.6 | 4.3 | 0.00 | 0.00 | 0.00 | 62 | 1018.1 |
| 20260507134026 | 86 | 87 | 0.9 | 1.7 | 0.00 | 0.00 | 0.00 | 62 | 1018.1 |
| 20260507133522 | 87 | 95 | 3.5 | 4.3 | 0.00 | 0.00 | 0.00 | 60 | 1018.0 |
| 20260507133021 | 86 | 247 | 0.9 | 1.7 | 0.00 | 0.00 | 0.00 | 62 | 1017.7 |
| 20260507132517 | 86 | 140 | 1.7 | 1.7 | 0.00 | 0.00 | 0.00 | 62 | 1017.7 |
| 20260507132013 | 86 | 141 | 0.9 | 1.7 | 0.00 | 0.00 | 0.00 | 63 | 1017.8 |
| 20260507131510 | 84 | 176 | 0.9 | 1.7 | 0.00 | 0.00 | 0.00 | 67 | 1017.9 |
| 20260507131007 | 83 | 331 | 1.7 | 1.7 | 0.00 | 0.00 | 0.00 | 67 | 1017.7 |
| 20260507130504 | 82 | 265 | 0.9 | 0.9 | 0.00 | 0.00 | 0.00 | 69 | 1017.6 |
| 20260507130003 | 81 | 274 | 1.7 | 2.6 | 0.00 | 0.00 | 0.00 | 74 | 1017.6 |
| 20260507125501 | 81 | 279 | 1.7 | 2.6 | 0.00 | 0.00 | 0.00 | 75 | 1017.5 |
| 20260507124957 | 81 | 306 | 2.6 | 2.6 | 0.00 | 0.00 | 0.00 | 74 | 1017.4 |
| 20260507124454 | 80 | 286 | 0.9 | 1.7 | 0.00 | 0.00 | 0.00 | 75 | 1017.5 |
| 20260507123952 | 80 | 327 | 1.7 | 1.7 | 0.00 | 0.00 | 0.00 | 74 | 1017.4 |
| 20260507123449 | 80 | 93 | 0.0 | 1.7 | 0.00 | 0.00 | 0.00 | 75 | 1017.5 |
| 20260507122946 | 80 | 309 | 0.9 | 0.9 | 0.00 | 0.00 | 0.00 | 76 | 1017.4 |
| 20260507122441 | 79 | 357 | 0.9 | 1.7 | 0.00 | 0.00 | 0.00 | 79 | 1017.4 |
| 20260507121937 | 78 | 326 | 0.9 | 1.7 | 0.00 | 0.00 | 0.00 | 79 | 1017.3 |
| 20260507121432 | 79 | 319 | 0.9 | 1.7 | 0.00 | 0.00 | 0.00 | 78 | 1017.4 |
| 20260507120930 | 79 | 311 | 0.9 | 0.9 | 0.00 | 0.00 | 0.00 | 77 | 1017.4 |
| 20260507120426 | 79 | 335 | 0.9 | 0.9 | 0.00 | 0.00 | 0.00 | 77 | 1017.1 |
| 20260507115922 | 79 | 0 | 0.9 | 0.9 | 0.00 | 0.00 | 0.00 | 77 | 1017.3 |
| 20260507115418 | 79 | 313 | 0.0 | 0.9 | 0.00 | 0.00 | 0.00 | 77 | 1017.1 |
| 20260507114914 | 78 | 317 | 0.0 | 0.9 | 0.00 | 0.00 | 0.00 | 78 | 1017.0 |
| 20260507114411 | 78 | 40 | 0.9 | 0.9 | 0.00 | 0.00 | 0.00 | 76 | 1016.8 |
| 20260507113908 | 78 | 82 | 0.0 | 0.9 | 0.00 | 0.00 | 0.00 | 77 | 1016.6 |
| 20260507113406 | 77 | 82 | 0.9 | 0.9 | 0.00 | 0.00 | 0.00 | 79 | 1016.7 |
| 20260507112903 | 77 | 73 | 0.0 | 0.9 | 0.00 | 0.00 | 0.00 | 80 | 1016.5 |
| 20260507112400 | 77 | 52 | 0.9 | 0.9 | 0.00 | 0.00 | 0.00 | 80 | 1016.5 |
| 20260507111858 | 76 | 324 | 0.0 | 0.9 | 0.00 | 0.00 | 0.00 | 80 | 1016.6 |
| 20260507111354 | 76 | 14 | 0.9 | 0.9 | 0.00 | 0.00 | 0.00 | 81 | 1016.5 |
| 20260507110850 | 76 | 33 | 0.9 | 1.7 | 0.00 | 0.00 | 0.00 | 81 | 1016.5 |
| 20260507110346 | 75 | 28 | 0.0 | 0.9 | 0.00 | 0.00 | 0.00 | 83 | 1016.6 |
| 20260507105844 | 74 | 44 | 0.0 | 1.7 | 0.00 | 0.00 | 0.00 | 85 | 1016.2 |
| 20260507105340 | 74 | 64 | 0.9 | 1.7 | 0.00 | 0.00 | 0.00 | 86 | 1016.4 |
| 20260507104837 | 74 | 11 | 0.9 | 1.7 | 0.00 | 0.00 | 0.00 | 86 | 1016.4 |
| 20260507104334 | 74 | 20 | 0.9 | 0.9 | 0.00 | 0.00 | 0.00 | 86 | 1016.2 |
| 20260507103829 | 74 | 53 | 0.9 | 1.7 | 0.00 | 0.00 | 0.00 | 86 | 1016.2 |
| 20260507103326 | 73 | 42 | 0.9 | 1.7 | 0.00 | 0.00 | 0.00 | 86 | 1016.2 |
| 20260507102823 | 74 | 58 | 0.9 | 1.7 | 0.00 | 0.00 | 0.00 | 87 | 1015.9 |
| 20260507102319 | 74 | 25 | 0.9 | 0.9 | 0.00 | 0.00 | 0.00 | 87 | 1015.9 |
| 20260507101816 | 73 | 28 | 0.9 | 0.9 | 0.00 | 0.00 | 0.00 | 87 | 1016.0 |
| 20260507101315 | 74 | 36 | 0.9 | 1.7 | 0.00 | 0.00 | 0.00 | 86 | 1016.0 |
| 20260507100813 | 74 | 24 | 0.9 | 0.9 | 0.00 | 0.00 | 0.00 | 85 | 1015.9 |
| 20260507100311 | 74 | 25 | 0.0 | 0.9 | 0.00 | 0.00 | 0.00 | 86 | 1015.9 |
| 20260507095809 | 74 | 68 | 0.9 | 1.7 | 0.00 | 0.00 | 0.00 | 86 | 1015.9 |
| 20260507095306 | 74 | 26 | 0.9 | 0.9 | 0.00 | 0.00 | 0.00 | 86 | 1015.9 |
| 20260507094802 | 74 | 6 | 0.9 | 0.9 | 0.00 | 0.00 | 0.00 | 86 | 1015.7 |
| 20260507094259 | 74 | 13 | 0.0 | 0.9 | 0.00 | 0.00 | 0.00 | 86 | 1015.8 |
| 20260507093756 | 74 | 27 | 0.9 | 0.9 | 0.00 | 0.00 | 0.00 | 86 | 1015.8 |
| 20260507093254 | 74 | 16 | 0.9 | 0.9 | 0.00 | 0.00 | 0.00 | 86 | 1015.6 |
| 20260507092752 | 74 | 12 | 0.9 | 1.7 | 0.00 | 0.00 | 0.00 | 87 | 1015.7 |
| 20260507092247 | 74 | 43 | 0.9 | 0.9 | 0.00 | 0.00 | 0.00 | 88 | 1015.7 |
| 20260507091744 | 74 | 44 | 0.9 | 0.9 | 0.00 | 0.00 | 0.00 | 88 | 1015.5 |
| 20260507091241 | 74 | 45 | 0.9 | 0.9 | 0.00 | 0.00 | 0.00 | 88 | 1015.5 |
| 20260507090736 | 74 | 59 | 0.9 | 1.7 | 0.00 | 0.00 | 0.00 | 87 | 1015.6 |
| 20260507090233 | 74 | 64 | 0.9 | 0.9 | 0.00 | 0.00 | 0.00 | 87 | 1015.6 |
| 20260507085730 | 74 | 34 | 0.9 | 0.9 | 0.00 | 0.00 | 0.00 | 86 | 1015.3 |
| 20260507085227 | 74 | 10 | 0.9 | 0.9 | 0.00 | 0.00 | 0.00 | 87 | 1015.4 |
| 20260507084724 | 74 | 38 | 0.9 | 0.9 | 0.00 | 0.00 | 0.00 | 89 | 1015.6 |
| 20260507084220 | 73 | 60 | 0.9 | 1.7 | 0.00 | 0.00 | 0.00 | 90 | 1015.5 |
| 20260507083718 | 73 | 61 | 0.9 | 0.9 | 0.00 | 0.00 | 0.00 | 89 | 1015.7 |
| 20260507083214 | 74 | 46 | 0.9 | 0.9 | 0.00 | 0.00 | 0.00 | 88 | 1015.5 |
| 20260507082710 | 74 | 42 | 0.9 | 0.9 | 0.00 | 0.00 | 0.00 | 88 | 1015.4 |
| 20260507082207 | 74 | 54 | 0.9 | 0.9 | 0.00 | 0.00 | 0.00 | 88 | 1015.5 |
| 20260507081703 | 75 | 42 | 0.9 | 0.9 | 0.00 | 0.00 | 0.00 | 87 | 1015.4 |
| 20260507081159 | 75 | 344 | 0.9 | 0.9 | 0.00 | 0.00 | 0.00 | 88 | 1015.4 |
| 20260507080656 | 75 | 340 | 0.9 | 0.9 | 0.00 | 0.00 | 0.00 | 88 | 1015.5 |
| 20260507080153 | 74 | 23 | 0.0 | 1.7 | 0.00 | 0.00 | 0.00 | 88 | 1015.5 |
| 20260507075648 | 75 | 67 | 0.9 | 0.9 | 0.00 | 0.00 | 0.00 | 86 | 1015.5 |
| 20260507075144 | 75 | 302 | 1.7 | 1.7 | 0.00 | 0.00 | 0.00 | 87 | 1015.7 |
| 20260507074641 | 75 | 4 | 0.0 | 0.9 | 0.00 | 0.00 | 0.00 | 87 | 1015.5 |
| 20260507074139 | 75 | 304 | 0.9 | 1.7 | 0.00 | 0.00 | 0.00 | 86 | 1015.6 |
| 20260507073635 | 76 | 318 | 0.9 | 0.9 | 0.00 | 0.00 | 0.00 | 86 | 1015.5 |
| 20260507073132 | 75 | 315 | 0.9 | 0.9 | 0.00 | 0.00 | 0.00 | 86 | 1015.4 |
| 20260507072630 | 76 | 71 | 0.0 | 0.9 | 0.00 | 0.00 | 0.00 | 86 | 1015.3 |
| 20260507072127 | 76 | 57 | 0.0 | 0.9 | 0.00 | 0.00 | 0.00 | 85 | 1015.5 |
| 20260507071624 | 76 | 327 | 0.9 | 0.9 | 0.00 | 0.00 | 0.00 | 86 | 1015.7 |
| 20260507071120 | 76 | 340 | 0.9 | 1.7 | 0.00 | 0.00 | 0.00 | 86 | 1015.7 |
| 20260507070617 | 75 | 323 | 0.9 | 1.7 | 0.00 | 0.00 | 0.00 | 87 | 1015.6 |
| 20260507070114 | 75 | 343 | 0.9 | 1.7 | 0.00 | 0.00 | 0.00 | 88 | 1015.6 |
| 20260507065611 | 75 | 331 | 0.9 | 0.9 | 0.00 | 0.00 | 0.00 | 89 | 1015.9 |
| 20260507065108 | 75 | 26 | 0.0 | 0.9 | 0.00 | 0.00 | 0.00 | 89 | 1015.9 |
| 20260507064606 | 75 | 343 | 0.0 | 0.9 | 0.00 | 0.00 | 0.00 | 89 | 1015.8 |
| 20260507064104 | 75 | 51 | 0.9 | 0.9 | 0.00 | 0.00 | 0.00 | 89 | 1016.0 |
| 20260507063601 | 75 | 10 | 0.0 | 0.9 | 0.00 | 0.00 | 0.00 | 90 | 1016.0 |
| 20260507063058 | 75 | 29 | 0.9 | 0.9 | 0.00 | 0.00 | 0.00 | 89 | 1015.9 |
| 20260507062554 | 75 | 13 | 0.0 | 0.9 | 0.00 | 0.00 | 0.00 | 90 | 1016.0 |
| 20260507062052 | 75 | 31 | 0.0 | 0.9 | 0.00 | 0.00 | 0.00 | 90 | 1016.1 |
| 20260507061550 | 75 | 344 | 0.9 | 0.9 | 0.00 | 0.00 | 0.00 | 90 | 1016.2 |
| 20260507061048 | 75 | 324 | 0.9 | 1.7 | 0.00 | 0.00 | 0.00 | 90 | 1016.4 |
| 20260507060545 | 74 | 52 | 0.0 | 1.7 | 0.00 | 0.00 | 0.00 | 90 | 1016.4 |
| 20260507060042 | 74 | 289 | 0.0 | 0.9 | 0.00 | 0.00 | 0.00 | 90 | 1016.4 |
| 20260507055537 | 74 | 6 | 0.0 | 0.9 | 0.00 | 0.00 | 0.00 | 90 | 1016.4 |
| 20260507055033 | 74 | 356 | 0.9 | 0.9 | 0.00 | 0.00 | 0.00 | 90 | 1016.7 |
| 20260507054530 | 75 | 335 | 0.0 | 0.9 | 0.00 | 0.00 | 0.00 | 90 | 1016.7 |
| 20260507054027 | 75 | 358 | 0.0 | 0.9 | 0.00 | 0.00 | 0.00 | 89 | 1016.8 |
| 20260507053525 | 75 | 5 | 0.9 | 0.9 | 0.00 | 0.00 | 0.00 | 88 | 1016.9 |
| 20260507053023 | 76 | 35 | 0.0 | 0.9 | 0.00 | 0.00 | 0.00 | 87 | 1016.7 |
| 20260507052520 | 76 | 354 | 0.0 | 0.9 | 0.00 | 0.00 | 0.00 | 86 | 1016.8 |
| 20260507052017 | 76 | 310 | 0.9 | 1.7 | 0.00 | 0.00 | 0.00 | 86 | 1016.8 |
| 20260507051515 | 77 | 306 | 0.9 | 1.7 | 0.00 | 0.00 | 0.00 | 86 | 1017.2 |
| 20260507051011 | 76 | 307 | 0.9 | 1.7 | 0.00 | 0.00 | 0.00 | 86 | 1016.9 |
| 20260507050508 | 76 | 327 | 0.9 | 1.7 | 0.00 | 0.00 | 0.00 | 87 | 1016.9 |
| 20260507050005 | 76 | 308 | 1.7 | 1.7 | 0.00 | 0.00 | 0.00 | 87 | 1017.1 |
| 20260507045501 | 76 | 347 | 0.9 | 0.9 | 0.00 | 0.00 | 0.00 | 87 | 1017.1 |
| 20260507044959 | 76 | 4 | 0.0 | 0.9 | 0.00 | 0.00 | 0.00 | 87 | 1017.2 |
| 20260507044455 | 76 | 328 | 0.9 | 0.9 | 0.00 | 0.00 | 0.00 | 88 | 1017.1 |
| 20260507043951 | 76 | 354 | 0.0 | 0.9 | 0.00 | 0.00 | 0.00 | 88 | 1017.1 |
| 20260507043447 | 76 | 40 | 0.0 | 0.9 | 0.00 | 0.00 | 0.00 | 88 | 1017.2 |
| 20260507042944 | 76 | 49 | 0.9 | 0.9 | 0.00 | 0.00 | 0.00 | 87 | 1017.2 |
| 20260507042441 | 76 | 25 | 0.9 | 0.9 | 0.00 | 0.00 | 0.00 | 86 | 1017.2 |
| 20260507041937 | 77 | 16 | 0.9 | 0.9 | 0.00 | 0.00 | 0.00 | 85 | 1017.3 |
| 20260507041433 | 77 | 316 | 0.9 | 0.9 | 0.00 | 0.00 | 0.00 | 85 | 1017.3 |
| 20260507040931 | 77 | 321 | 0.9 | 1.7 | 0.00 | 0.00 | 0.00 | 85 | 1017.3 |
| 20260507040431 | 77 | 343 | 1.7 | 1.7 | 0.00 | 0.00 | 0.00 | 86 | 1017.4 |
| 20260507035927 | 77 | 1 | 0.9 | 0.9 | 0.00 | 0.00 | 0.00 | 86 | 1017.5 |
| 20260507035424 | 76 | 342 | 1.7 | 1.7 | 0.00 | 0.00 | 0.00 | 87 | 1017.3 |
| 20260507034921 | 76 | 57 | 0.0 | 0.9 | 0.00 | 0.00 | 0.00 | 86 | 1017.5 |
| 20260507034418 | 77 | 49 | 0.9 | 0.9 | 0.00 | 0.00 | 0.00 | 85 | 1017.6 |
| 20260507033916 | 78 | 12 | 0.9 | 0.9 | 0.00 | 0.00 | 0.00 | 83 | 1017.5 |
| 20260507033414 | 78 | 354 | 0.0 | 0.0 | 0.00 | 0.00 | 0.00 | 81 | 1017.5 |
| 20260507032910 | 78 | 69 | 0.0 | 0.9 | 0.00 | 0.00 | 0.00 | 81 | 1017.4 |
| 20260507032407 | 78 | 225 | 0.9 | 0.9 | 0.00 | 0.00 | 0.00 | 80 | 1017.4 |
| 20260507031903 | 78 | 42 | 0.0 | 0.9 | 0.00 | 0.00 | 0.00 | 81 | 1017.5 |
| 20260507031400 | 78 | 42 | 0.0 | 0.9 | 0.00 | 0.00 | 0.00 | 80 | 1017.5 |
| 20260507030857 | 78 | 193 | 0.9 | 0.9 | 0.00 | 0.00 | 0.00 | 81 | 1017.7 |
| 20260507030354 | 78 | 348 | 0.9 | 0.9 | 0.00 | 0.00 | 0.00 | 82 | 1017.7 |
| 20260507025851 | 78 | 70 | 0.0 | 0.9 | 0.00 | 0.00 | 0.00 | 82 | 1017.8 |
| 20260507025349 | 78 | 193 | 0.9 | 1.7 | 0.00 | 0.00 | 0.00 | 82 | 1017.4 |
| 20260507024846 | 79 | 319 | 0.0 | 0.9 | 0.00 | 0.00 | 0.00 | 80 | 1017.5 |
| 20260507024343 | 79 | 63 | 0.9 | 0.9 | 0.00 | 0.00 | 0.00 | 80 | 1017.7 |
| 20260507023839 | 79 | 313 | 0.0 | 0.9 | 0.00 | 0.00 | 0.00 | 80 | 1017.4 |
| 20260507023336 | 80 | 45 | 0.0 | 0.9 | 0.00 | 0.00 | 0.00 | 79 | 1017.4 |
| 20260507022833 | 80 | 78 | 0.9 | 1.7 | 0.00 | 0.00 | 0.00 | 79 | 1017.2 |
| 20260507022329 | 79 | 204 | 0.9 | 0.9 | 0.00 | 0.00 | 0.00 | 80 | 1017.3 |
| 20260507021825 | 79 | 221 | 0.0 | 0.9 | 0.00 | 0.00 | 0.00 | 80 | 1017.2 |
| 20260507021321 | 79 | 137 | 0.0 | 0.9 | 0.00 | 0.00 | 0.00 | 80 | 1017.3 |
| 20260507020819 | 79 | 323 | 1.7 | 2.6 | 0.00 | 0.00 | 0.00 | 81 | 1017.1 |
| 20260507020315 | 78 | 237 | 0.0 | 0.9 | 0.00 | 0.00 | 0.00 | 82 | 1017.1 |
| 20260507015813 | 78 | 45 | 0.0 | 0.9 | 0.00 | 0.00 | 0.00 | 84 | 1017.1 |
| 20260507015310 | 78 | 57 | 0.0 | 0.9 | 0.00 | 0.00 | 0.00 | 84 | 1016.9 |
| 20260507014807 | 78 | 58 | 0.9 | 0.9 | 0.00 | 0.00 | 0.00 | 84 | 1016.9 |
| 20260507014303 | 78 | 51 | 0.0 | 0.9 | 0.00 | 0.00 | 0.00 | 84 | 1016.9 |
| 20260507013800 | 78 | 13 | 0.0 | 0.9 | 0.00 | 0.00 | 0.00 | 84 | 1016.8 |
| 20260507013257 | 78 | 38 | 0.9 | 0.9 | 0.00 | 0.00 | 0.00 | 84 | 1016.9 |
| 20260507012755 | 78 | 15 | 0.0 | 0.9 | 0.00 | 0.00 | 0.00 | 84 | 1016.6 |
| 20260507012250 | 78 | 53 | 0.9 | 1.7 | 0.00 | 0.00 | 0.00 | 83 | 1016.8 |
| 20260507011748 | 79 | 60 | 1.7 | 1.7 | 0.00 | 0.00 | 0.00 | 81 | 1016.7 |
| 20260507011244 | 79 | 62 | 0.9 | 0.9 | 0.00 | 0.00 | 0.00 | 79 | 1016.6 |
| 20260507010744 | 80 | 67 | 0.9 | 0.9 | 0.00 | 0.00 | 0.00 | 77 | 1016.6 |
| 20260507010240 | 80 | 122 | 0.9 | 0.9 | 0.00 | 0.00 | 0.00 | 77 | 1016.8 |
| 20260507005738 | 80 | 347 | 0.0 | 0.9 | 0.00 | 0.00 | 0.00 | 77 | 1016.6 |
| 20260507005234 | 80 | 109 | 0.0 | 0.9 | 0.00 | 0.00 | 0.00 | 77 | 1016.5 |
| 20260507004730 | 80 | 30 | 0.0 | 0.9 | 0.00 | 0.00 | 0.00 | 76 | 1016.7 |
| 20260507004229 | 81 | 148 | 0.9 | 1.7 | 0.00 | 0.00 | 0.00 | 75 | 1016.3 |
| 20260507003724 | 81 | 154 | 0.9 | 1.7 | 0.00 | 0.00 | 0.00 | 75 | 1016.5 |
| 20260507003220 | 81 | 125 | 0.9 | 1.7 | 0.00 | 0.00 | 0.00 | 75 | 1016.4 |
| 20260507002716 | 81 | 101 | 0.9 | 2.6 | 0.00 | 0.00 | 0.00 | 75 | 1016.4 |
| 20260507002212 | 81 | 121 | 0.9 | 1.7 | 0.00 | 0.00 | 0.00 | 76 | 1016.5 |
| 20260507001709 | 81 | 292 | 0.0 | 1.7 | 0.00 | 0.00 | 0.00 | 76 | 1016.4 |
| 20260507001206 | 81 | 108 | 0.9 | 1.7 | 0.00 | 0.00 | 0.00 | 76 | 1016.2 |
| 20260507000702 | 81 | 90 | 0.9 | 4.3 | 0.00 | 0.00 | 0.00 | 76 | 1016.4 |
| 20260507000158 | 81 | 85 | 2.6 | 2.6 | 0.00 | 0.00 | 0.00 | 77 | 1016.3 |
| 20260506235655 | 81 | 106 | 0.9 | 2.6 | 0.00 | 0.00 | 0.00 | 77 | 1016.3 |
| 20260506235151 | 81 | 291 | 0.0 | 2.6 | 0.00 | 0.00 | 0.00 | 77 | 1016.0 |
| 20260506234648 | 81 | 280 | 0.9 | 3.5 | 0.00 | 0.00 | 0.00 | 77 | 1015.9 |
| 20260506234145 | 82 | 156 | 4.3 | 5.2 | 0.00 | 0.00 | 0.00 | 76 | 1015.9 |
| 20260506233642 | 82 | 136 | 1.7 | 3.5 | 0.00 | 0.00 | 0.00 | 76 | 1016.1 |
| 20260506233139 | 82 | 128 | 1.7 | 2.6 | 0.00 | 0.00 | 0.00 | 76 | 1016.1 |
| 20260506232635 | 82 | 136 | 3.5 | 4.3 | 0.00 | 0.00 | 0.00 | 76 | 1016.3 |
| 20260506232131 | 82 | 67 | 0.9 | 2.6 | 0.00 | 0.00 | 0.00 | 75 | 1016.2 |
| 20260506231628 | 82 | 183 | 5.2 | 7.0 | 0.00 | 0.00 | 0.00 | 75 | 1016.1 |
| 20260506231126 | 82 | 119 | 0.9 | 5.2 | 0.00 | 0.00 | 0.00 | 75 | 1016.2 |
| 20260506230623 | 82 | 186 | 0.9 | 3.5 | 0.00 | 0.00 | 0.00 | 74 | 1016.0 |
| 20260506230120 | 82 | 116 | 2.6 | 5.2 | 0.00 | 0.00 | 0.00 | 73 | 1016.0 |
| 20260506225616 | 83 | 180 | 2.6 | 5.2 | 0.00 | 0.00 | 0.00 | 73 | 1016.0 |
| 20260506225113 | 82 | 137 | 1.7 | 5.2 | 0.00 | 0.00 | 0.00 | 73 | 1015.9 |
| 20260506224610 | 82 | 118 | 2.6 | 7.8 | 0.00 | 0.00 | 0.00 | 73 | 1015.8 |
| 20260506224106 | 83 | 163 | 2.6 | 6.1 | 0.00 | 0.00 | 0.00 | 72 | 1016.0 |
| 20260506223602 | 83 | 197 | 1.7 | 7.8 | 0.00 | 0.00 | 0.00 | 72 | 1016.0 |
| 20260506223059 | 83 | 197 | 1.7 | 6.1 | 0.00 | 0.00 | 0.00 | 72 | 1015.8 |
| 20260506222555 | 83 | 171 | 4.3 | 7.0 | 0.00 | 0.00 | 0.00 | 71 | 1015.9 |
| 20260506222052 | 83 | 202 | 1.7 | 5.2 | 0.00 | 0.00 | 0.00 | 71 | 1015.8 |